Date,TemperatureHighF,TemperatureAvgF,TemperatureLowF,DewpointHighF,DewpointAvgF,DewpointLowF,HumidityHigh,HumidityAvg,HumidityLow,PressureMaxIn,PressureMinIn,WindSpeedMaxMPH,WindSpeedAvgMPH,GustSpeedMaxMPH,PrecipitationSumIn
2013-1-1,43,41,36,28,26,22,63,54,45,0.00,40.00,9,7,17,0.00
2013-1-2,36,31,24,22,15,12,73,51,38,0.00,40.00,9,5,18,0.00
2013-1-3,35,28,20,20,16,13,87,60,43,0.00,40.00,9,4,15,0.00
2013-1-4,41,35,29,21,20,18,70,55,42,0.00,40.00,14,7,23,0.00
2013-1-5,41,33,26,26,20,19,80,60,44,0.00,40.00,9,4,14,0.00
2013-1-6,50,39,28,33,28,23,94,66,39,0.00,40.00,9,3,14,0.00
2013-1-7,49,40,25,28,26,23,92,60,40,0.00,40.00,9,4,17,0.00
2013-1-8,52,37,24,33,29,22,94,76,45,0.00,40.00,9,2,16,0.00
2013-1-9,54,42,29,41,34,27,95,77,55,0.00,40.00,7,2,16,0.00
2013-1-10,49,42,33,35,28,25,82,59,42,0.00,40.00,9,4,17,0.00
2013-1-11,46,40,30,45,36,27,98,87,74,0.00,40.00,6,2,12,0.23
2013-1-12,57,46,42,48,44,41,99,92,72,0.00,40.00,6,2,10,0.23
2013-1-13,54,46,41,54,46,41,100,100,98,0.00,40.00,5,3,10,0.00
2013-1-14,58,54,42,58,49,38,100,86,63,0.00,40.00,8,4,15,0.18
2013-1-15,42,39,36,40,36,31,97,88,73,0.00,40.00,6,3,12,0.76
2013-1-16,40,37,35,39,36,34,98,96,95,0.00,40.00,8,3,17,0.89
2013-1-17,43,40,37,40,33,27,99,78,56,0.00,40.00,8,3,16,0.02
2013-1-18,38,32,23,28,18,6,86,58,29,0.00,40.00,12,5,23,0.00
2013-1-19,53,39,25,30,25,13,80,58,36,0.00,40.00,8,4,21,0.00
2013-1-20,58,46,34,30,23,10,65,42,25,0.00,40.00,13,8,26,0.00
2013-1-21,37,32,28,29,15,8,88,51,34,0.00,40.00,9,4,15,0.00
2013-1-22,28,21,16,19,-1,-7,69,38,27,0.00,40.00,17,11,27,0.00
2013-1-23,23,18,14,3,-3,-6,48,40,29,0.00,40.00,10,6,22,0.00
2013-1-24,26,20,15,12,3,-6,80,50,24,0.00,40.00,13,6,25,0.00
2013-1-25,24,18,12,16,6,-1,88,60,36,0.00,40.00,5,2,10,0.00
2013-1-26,30,21,9,16,12,5,88,69,46,0.00,40.00,11,5,19,0.04
2013-1-27,35,21,9,18,11,5,86,68,38,0.00,40.00,8,2,13,0.01
2013-1-28,37,32,20,36,30,15,97,89,78,0.00,40.00,6,2,12,0.12
2013-1-29,59,42,31,47,38,30,100,89,64,0.00,40.00,5,2,9,0.01
2013-1-30,70,58,36,60,53,35,100,83,64,0.00,40.00,8,4,21,0.01
2013-1-31,66,42,30,60,19,8,83,40,31,0.00,40.00,18,14,36,0.58
2013-2-1,31,27,21,26,10,1,93,52,31,0.00,40.00,16,8,28,0.04
2013-2-2,32,24,12,24,8,2,90,53,30,0.00,40.00,8,4,16,0.04
2013-2-3,38,29,23,25,22,19,94,77,51,0.00,40.00,9,2,18,0.04
2013-2-4,35,28,24,25,13,7,74,53,40,0.00,40.00,15,7,26,0.04
2013-2-5,38,33,30,29,26,19,93,75,61,0.00,40.00,5,2,8,0.00
2013-2-6,41,32,23,29,25,20,96,76,49,0.00,40.00,10,4,20,0.00
2013-2-7,38,30,21,24,20,16,92,69,44,0.00,40.00,8,3,15,0.00
2013-2-8,40,37,33,39,33,22,96,86,61,0.00,40.00,11,7,21,0.43
2013-2-9,37,32,28,30,16,13,78,53,41,0.00,40.00,19,14,32,0.03
2013-2-10,44,32,17,25,14,8,83,51,22,0.00,40.00,5,3,9,0.00
2013-2-11,55,44,34,53,41,23,99,89,64,0.00,40.00,11,4,17,0.36
2013-2-12,51,43,31,44,29,26,96,58,40,0.00,40.00,13,6,23,0.01
2013-2-13,46,35,25,35,28,24,96,77,50,0.00,40.00,7,3,11,0.21
2013-2-14,46,37,28,33,30,26,97,79,47,0.00,40.00,7,3,14,0.32
2013-2-15,60,42,28,37,32,27,96,73,31,0.00,40.00,9,3,17,0.04
2013-2-16,40,35,32,35,30,15,95,82,49,0.00,40.00,9,5,17,0.05
2013-2-17,33,29,25,15,9,2,52,43,35,0.00,40.00,17,12,33,0.01
2013-2-18,38,27,21,16,6,1,64,41,26,0.00,40.00,13,8,29,0.01
2013-2-19,46,40,31,44,31,15,95,73,51,0.00,40.00,9,4,19,0.12
2013-2-20,40,32,26,27,12,7,59,43,39,0.00,40.00,16,12,29,0.03
2013-2-21,36,29,23,15,11,8,55,47,37,0.00,40.00,15,10,28,0.00
2013-2-22,36,31,26,32,22,14,94,68,55,0.00,40.00,7,4,13,0.03
2013-2-23,46,41,34,46,41,32,100,98,94,0.00,40.00,6,4,11,0.18
2013-2-24,49,41,34,40,32,19,98,72,40,0.00,40.00,15,8,27,0.01
2013-2-25,47,37,28,27,22,18,90,57,41,0.00,40.00,10,5,16,0.00
2013-2-26,45,35,25,43,31,23,97,86,65,0.00,40.00,12,5,29,0.63
2013-2-27,55,49,44,49,41,32,100,76,46,0.00,40.00,13,6,23,0.85
2013-2-28,47,42,37,38,31,21,91,65,36,0.00,40.00,9,5,18,0.04
2013-3-1,44,40,31,31,28,25,89,63,49,0.00,40.00,10,6,18,0.01
2013-3-2,39,37,33,25,22,20,64,54,46,0.00,40.00,13,7,18,0.00
2013-3-3,38,34,30,22,18,15,62,52,41,0.00,40.00,12,10,25,0.00
2013-3-4,42,34,29,19,16,13,57,47,38,0.00,40.00,16,11,27,0.00
2013-3-5,48,37,28,29,22,17,77,57,40,0.00,40.00,8,5,14,0.01
2013-3-6,40,38,36,37,34,29,94,86,70,0.00,40.00,13,10,31,0.78
2013-3-7,46,42,37,31,26,23,76,53,43,0.00,40.00,13,9,24,0.01
2013-3-8,45,39,34,27,24,20,70,53,48,0.00,40.00,15,11,27,0.00
2013-3-9,61,44,32,30,24,20,81,47,20,0.00,40.00,10,5,18,0.00
2013-3-10,56,40,26,37,31,24,95,72,37,0.00,40.00,7,4,13,0.00
2013-3-11,58,48,38,49,44,37,100,86,58,0.00,40.00,7,4,14,0.00
2013-3-12,58,54,43,57,49,32,96,83,64,0.00,40.00,12,7,23,0.74
2013-3-13,50,42,30,33,27,19,98,59,34,0.00,40.00,12,7,22,0.01
2013-3-14,43,37,32,20,16,12,55,43,31,0.00,40.00,15,11,30,0.00
2013-3-15,53,39,23,28,20,14,85,51,28,0.00,40.00,12,5,21,0.00
2013-3-16,47,39,32,34,32,28,89,76,55,0.00,40.00,9,4,18,0.00
2013-3-17,39,36,31,34,27,20,94,71,51,0.00,40.00,8,4,14,0.00
2013-3-18,41,37,34,41,26,16,100,68,47,0.00,40.00,8,5,18,0.50
2013-3-19,54,45,39,41,36,16,100,76,27,0.00,40.00,11,5,21,0.61
2013-3-20,51,41,29,26,19,15,72,43,24,0.00,40.00,14,7,24,0.01
2013-3-21,39,34,30,27,17,9,81,50,33,0.00,40.00,11,8,23,0.00
2013-3-22,44,36,29,20,16,10,58,46,35,0.00,40.00,13,8,24,0.00
2013-3-23,48,37,22,24,21,19,93,56,35,0.00,40.00,13,6,22,0.00
2013-3-24,44,36,24,27,22,19,90,59,38,0.00,40.00,6,3,11,0.00
2013-3-25,37,35,32,34,32,26,99,89,67,0.00,40.00,7,5,16,0.75
2013-3-26,50,41,30,34,31,25,99,72,39,0.00,40.00,10,6,17,0.05
2013-3-27,51,43,36,33,28,24,75,57,35,0.00,40.00,14,8,24,0.00
2013-3-28,47,46,44,28,27,26,51,48,46,0.00,40.00,12,7,20,0.00
2013-3-29,54,44,29,31,28,25,94,56,35,0.00,40.00,12,6,22,0.00
2013-3-30,58,44,28,31,28,23,98,59,26,0.00,40.00,8,3,19,0.00
2013-3-31,59,47,35,50,38,-100,100,78,49,0.00,40.00,7,4,16,0.11
2013-4-1,63,50,37,49,38,17,99,67,35,0.00,40.00,16,7,25,0.02
2013-4-2,47,39,25,22,16,12,85,42,27,0.00,40.00,14,7,25,0.01
2013-4-3,49,40,24,20,15,10,82,39,24,0.00,40.00,15,8,26,0.00
2013-4-4,53,38,21,28,20,15,93,53,25,0.00,40.00,6,3,11,0.00
2013-4-5,63,49,37,38,31,16,98,57,23,0.00,40.00,11,6,22,0.35
2013-4-6,56,46,36,28,20,14,67,38,24,0.00,40.00,8,5,16,0.01
2013-4-7,66,51,36,44,36,26,85,58,36,0.00,40.00,6,4,19,0.00
2013-4-8,80,66,50,53,47,43,79,53,32,0.00,40.00,5,4,14,0.00
2013-4-9,84,72,58,55,53,51,79,53,32,0.00,40.00,10,5,20,0.00
2013-4-10,89,77,65,59,55,53,68,49,34,0.00,40.00,9,5,18,0.00
2013-4-11,81,64,51,60,56,49,94,77,46,0.00,40.00,10,5,23,0.00
2013-4-12,56,51,48,55,50,47,100,98,92,0.00,40.00,8,6,16,1.34
2013-4-13,65,52,39,47,41,37,100,70,40,0.00,40.00,8,4,18,0.18
2013-4-14,64,52,38,47,39,33,100,66,31,0.00,40.00,11,4,19,0.00
2013-4-15,58,53,49,48,44,39,84,72,60,0.00,40.00,10,6,17,0.00
2013-4-16,76,62,50,57,52,47,91,73,50,0.00,40.00,7,4,15,0.00
2013-4-17,72,63,55,62,55,46,92,76,59,0.00,40.00,7,4,15,0.00
2013-4-18,68,58,55,61,54,46,98,85,69,0.00,40.00,7,5,15,0.11
2013-4-19,80,68,60,66,62,58,97,82,58,0.00,40.00,8,5,23,0.45
2013-4-20,65,53,47,64,36,27,97,58,30,0.00,40.00,13,8,23,0.69
2013-4-21,54,45,33,34,26,20,89,49,32,0.00,40.00,7,5,19,0.01
2013-4-22,54,44,29,39,34,29,99,70,47,0.00,40.00,8,5,18,0.00
2013-4-23,56,49,44,45,40,36,86,72,58,0.00,40.00,7,5,15,0.00
2013-4-24,74,56,37,57,48,37,100,78,53,0.00,40.00,5,3,15,0.00
2013-4-25,65,54,41,55,35,27,93,53,25,0.00,40.00,13,7,26,0.01
2013-4-26,65,51,36,40,35,27,99,61,24,0.00,40.00,9,4,17,0.01
2013-4-27,71,53,34,39,35,29,99,60,22,0.00,40.00,5,2,11,0.00
2013-4-28,70,55,37,47,37,-100,98,60,29,0.00,40.00,9,4,16,0.00
2013-4-29,59,55,52,58,53,43,99,93,65,0.00,40.00,9,4,15,0.66
2013-4-30,66,61,54,54,45,32,99,56,36,0.00,40.00,9,6,20,0.20
2013-5-1,70,56,44,49,42,34,91,63,27,0.00,40.00,8,4,17,0.12
2013-5-2,70,55,37,50,44,37,99,69,38,0.00,40.00,7,4,14,0.00
2013-5-3,63,50,39,44,42,39,100,76,49,0.00,40.00,9,4,17,0.00
2013-5-4,69,54,39,47,43,39,99,70,42,0.00,40.00,9,4,17,0.00
2013-5-5,64,51,42,47,42,38,97,72,47,0.00,40.00,7,4,14,0.00
2013-5-6,68,54,41,58,50,40,99,88,68,0.00,40.00,6,4,14,0.00
2013-5-7,68,60,55,63,59,55,100,96,81,0.00,40.00,7,5,18,0.40
2013-5-8,73,64,58,61,57,52,100,83,48,0.00,40.00,7,3,12,0.10
2013-5-9,72,62,56,59,57,55,100,87,58,0.00,40.00,7,3,15,0.14
2013-5-10,85,68,52,63,55,-100,100,72,36,0.00,40.00,11,3,21,0.07
2013-5-11,80,67,62,68,63,60,100,89,58,0.00,40.00,13,4,21,0.87
2013-5-12,65,60,53,62,43,-100,100,61,27,0.00,40.00,13,7,23,0.68
2013-5-13,57,50,37,40,32,23,97,54,27,0.00,40.00,11,6,20,0.02
2013-5-14,61,47,31,48,33,26,98,65,29,0.00,40.00,10,4,18,0.01
2013-5-15,79,62,49,63,53,44,96,76,53,0.00,40.00,5,3,13,0.03
2013-5-16,81,63,60,66,35,-100,99,72,45,0.00,40.00,12,4,23,0.01
2013-5-17,79,68,52,60,38,-100,98,52,29,0.00,40.00,7,4,15,0.00
2013-5-18,73,63,56,59,55,51,99,77,49,0.00,40.00,6,4,12,0.02
2013-5-19,69,63,59,64,62,58,99,94,85,0.00,40.00,7,4,15,0.07
2013-5-20,81,70,63,70,66,63,100,88,64,0.00,40.00,8,3,13,0.01
2013-5-21,83,73,65,71,68,65,100,85,62,0.00,40.00,5,3,11,0.00
2013-5-22,86,75,67,73,70,67,100,84,61,0.00,40.00,5,3,11,0.00
2013-5-23,81,74,65,70,68,64,98,82,62,0.00,40.00,6,4,16,0.32
2013-5-24,66,58,50,66,53,37,100,83,59,0.00,40.00,12,7,32,0.43
2013-5-25,64,55,46,43,37,33,90,53,33,0.00,40.00,16,10,30,0.01
2013-5-26,71,56,40,47,40,34,99,61,27,0.00,40.00,13,6,22,0.00
2013-5-27,73,59,40,53,43,35,99,65,27,0.00,40.00,6,2,14,0.00
2013-5-28,73,62,52,67,60,51,99,92,78,0.00,40.00,4,2,9,0.14
2013-5-29,89,77,63,69,66,63,99,71,45,0.00,40.00,7,4,15,0.01
2013-5-30,92,80,67,69,66,62,92,66,37,0.00,40.00,6,3,12,0.00
2013-5-31,91,79,66,70,67,62,100,70,38,0.00,40.00,6,3,15,0.00
2013-6-1,91,80,67,70,68,66,97,70,48,0.00,40.00,6,4,16,0.00
2013-6-2,87,78,68,71,67,-100,98,74,59,0.00,40.00,12,4,21,0.11
2013-6-3,79,71,65,69,68,65,100,90,66,0.00,40.00,5,3,14,0.34
2013-6-4,75,65,55,67,52,45,100,68,38,0.00,40.00,8,4,16,0.08
2013-6-5,80,65,48,56,49,44,100,64,28,0.00,40.00,5,3,10,0.00
2013-6-6,75,65,51,65,58,50,100,82,56,0.00,40.00,8,5,17,0.10
2013-6-7,71,68,64,70,68,63,99,99,98,0.00,40.00,9,5,16,2.77
2013-6-8,80,70,63,68,65,61,100,84,58,0.00,40.00,10,4,20,0.86
2013-6-9,83,71,61,68,64,60,100,79,51,0.00,40.00,5,2,10,0.00
2013-6-10,80,73,67,75,71,66,100,92,80,0.00,40.00,6,4,12,1.12
2013-6-11,82,75,67,71,66,64,99,76,54,0.00,40.00,10,6,21,0.33
2013-6-12,83,75,67,72,68,65,96,79,58,0.00,40.00,7,4,13,0.00
2013-6-13,87,72,66,74,68,62,99,87,53,0.00,40.00,10,5,24,1.16
2013-6-14,76,65,57,64,57,52,98,77,50,0.00,40.00,10,6,22,0.58
2013-6-15,81,69,54,67,58,54,100,73,41,0.00,40.00,8,4,16,0.01
2013-6-16,84,71,57,69,64,57,100,80,49,0.00,40.00,7,3,17,0.00
2013-6-17,86,74,64,70,66,64,100,79,52,0.00,40.00,7,3,15,0.00
2013-6-18,79,68,61,72,66,61,100,94,75,0.00,40.00,7,2,19,1.51
2013-6-19,79,68,58,64,58,52,100,75,41,0.00,40.00,7,3,12,0.03
2013-6-20,81,66,53,60,56,53,100,75,42,0.00,40.00,6,2,10,0.00
2013-6-22,87,80,68,67,64,62,83,59,45,0.00,40.00,5,4,13,0.00
2013-6-23,80,72,62,76,69,62,100,91,76,0.00,40.00,4,2,7,1.11
2013-6-24,91,78,70,75,72,68,100,83,57,0.00,40.00,5,3,12,0.07
2013-6-25,82,73,67,72,69,67,100,90,72,0.00,40.00,4,2,9,0.00
2013-6-26,92,76,68,75,68,63,97,80,50,0.00,40.00,6,3,24,0.01
2013-6-27,80,74,69,73,70,69,100,91,78,0.00,40.00,6,2,15,0.01
2013-6-28,79,73,69,72,70,67,99,90,72,0.00,40.00,6,3,12,0.11
2013-6-29,73,68,66,72,68,66,100,98,95,0.00,40.00,4,2,8,0.01
2013-6-30,81,74,71,76,72,70,100,94,79,0.00,40.00,5,2,10,0.42
2013-7-1,80,76,74,75,74,73,97,92,82,0.00,40.00,5,4,12,0.68
2013-7-2,81,76,75,75,74,73,96,93,83,0.00,40.00,4,4,10,0.12
2013-7-3,81,79,77,75,74,74,92,86,81,0.00,40.00,4,3,9,0.00
2013-7-4,82,78,74,74,74,73,98,88,76,0.00,40.00,5,2,12,0.00
2013-7-5,78,77,76,73,73,73,91,89,86,0.00,40.00,2,1,5,0.00
2013-7-6,92,80,75,76,74,72,97,83,53,0.00,40.00,7,3,14,0.00
2013-7-7,92,84,74,75,73,69,90,70,56,0.00,40.00,7,4,14,0.00
2013-7-8,79,68,74,71,49,-100,94,82,75,0.00,40.00,4,2,8,0.00
2013-7-9,81,79,74,75,74,73,98,87,78,0.00,40.00,3,1,5,0.00
2013-7-10,81,80,74,74,72,70,98,78,71,0.00,40.00,7,4,14,0.00
2013-7-11,78,75,74,74,72,71,96,90,78,0.00,40.00,5,3,9,0.05
2013-7-13,78,76,74,74,73,72,99,91,81,0.00,40.00,5,3,11,0.00
2013-7-14,79,76,74,76,75,74,100,97,89,0.00,40.00,2,2,5,0.32
2013-7-15,92,88,74,77,74,72,99,66,54,0.00,40.00,6,4,11,0.00
2013-7-16,93,91,75,76,71,67,97,55,43,0.00,40.00,5,4,12,0.00
2013-7-17,93,87,74,75,73,72,98,68,50,0.00,40.00,4,2,9,0.00
2013-7-18,92,82,75,78,77,75,99,85,63,0.00,40.00,4,2,7,0.00
2013-7-19,92,84,77,77,76,74,99,78,60,0.00,40.00,5,3,11,0.00
2013-7-20,92,82,72,77,75,69,97,79,59,0.00,40.00,10,4,19,0.18
2013-7-21,91,80,72,75,74,69,99,83,59,0.00,40.00,10,3,19,0.39
2013-7-22,90,78,73,76,74,72,100,90,57,0.00,40.00,4,1,21,1.69
2013-7-23,80,76,73,76,74,71,100,94,88,0.00,40.00,11,5,20,2.10
2013-7-24,79,79,79,70,68,65,74,69,63,0.00,40.00,6,5,14,0.00
2013-7-26,83,77,65,65,62,59,96,62,45,0.00,40.00,6,3,11,0.00
2013-7-27,85,74,63,72,66,62,99,78,53,0.00,40.00,8,3,16,0.00
2013-7-28,85,74,67,73,69,63,99,85,64,0.00,40.00,8,3,17,3.34
2013-7-29,82,73,62,70,62,55,100,74,41,0.00,40.00,6,3,13,3.34
2013-7-30,81,69,57,67,59,56,99,75,45,0.00,40.00,7,2,13,0.00
2013-7-31,83,71,61,70,65,60,99,82,54,0.00,40.00,4,2,7,0.00
2013-8-1,76,70,65,73,68,63,99,93,83,0.00,40.00,6,3,11,2.57
2013-8-2,85,74,63,71,66,62,100,80,49,0.00,40.00,6,2,11,0.11
2013-8-3,80,69,64,71,67,64,100,92,68,0.00,40.00,5,2,10,0.13
2013-8-4,79,69,59,64,60,53,100,75,43,0.00,40.00,10,4,21,0.05
2013-8-5,79,67,56,63,57,53,99,75,42,0.00,40.00,7,2,15,0.00
2013-8-6,71,64,59,67,63,58,99,95,78,0.00,40.00,6,2,10,0.84
2013-8-7,79,71,64,73,68,63,99,92,83,0.00,40.00,6,3,12,0.59
2013-8-8,87,78,70,76,72,67,99,84,60,0.00,40.00,4,3,11,0.04
2013-8-9,89,79,74,77,74,72,99,86,67,0.00,40.00,8,4,16,0.06
2013-8-10,83,76,67,76,68,62,99,78,51,0.00,40.00,5,3,9,0.05
2013-8-11,85,73,63,71,66,61,100,80,52,0.00,40.00,5,2,11,0.00
2013-8-12,86,75,65,75,70,65,99,85,57,0.00,40.00,7,2,11,0.00
2013-8-13,82,74,70,75,69,-100,99,88,64,0.00,40.00,7,3,17,1.35
2013-8-14,74,67,56,70,56,49,98,69,49,0.00,40.00,10,6,21,0.18
2013-8-15,77,60,52,60,42,-100,99,69,39,0.00,40.00,5,2,10,0.00
2013-8-16,79,63,51,63,52,-100,99,75,42,0.00,40.00,5,1,9,0.00
2013-8-17,80,66,54,62,58,54,99,77,45,0.00,40.00,5,2,10,0.00
2013-8-18,75,67,62,65,61,-100,98,84,65,0.00,40.00,6,2,11,0.03
2013-8-19,77,64,61,67,55,-100,99,85,68,0.00,40.00,6,2,11,0.01
2013-8-20,87,72,61,71,64,-100,99,83,49,0.00,40.00,4,2,11,0.00
2013-8-21,89,76,65,77,70,65,100,84,55,0.00,40.00,4,2,10,0.00
2013-8-22,87,76,69,74,71,65,99,87,58,0.00,40.00,8,3,15,0.49
2013-8-23,79,72,63,70,66,60,99,84,58,0.00,40.00,5,2,11,0.38
2013-8-24,81,69,57,65,60,55,99,78,41,0.00,40.00,6,2,11,0.00
2013-8-25,81,66,53,69,55,-100,99,75,42,0.00,40.00,4,2,8,0.00
2013-8-26,84,70,57,68,62,56,98,78,50,0.00,40.00,6,3,13,0.00
2013-8-27,86,77,70,71,68,65,90,76,56,0.00,40.00,9,4,15,0.00
2013-8-28,82,76,71,75,71,70,99,86,73,0.00,40.00,6,3,10,0.34
2013-8-29,83,75,67,72,70,66,99,86,64,0.00,40.00,5,4,13,0.34
2013-8-30,85,74,65,72,69,65,99,86,64,0.00,40.00,5,2,11,0.06
2013-8-31,88,78,69,74,71,67,99,81,60,0.00,40.00,6,3,12,0.02
2013-9-1,91,78,71,77,70,-100,99,82,55,0.00,40.00,4,2,9,0.07
2013-9-2,89,78,73,75,73,72,99,86,60,0.00,40.00,5,2,10,0.01
2013-9-3,83,76,66,73,66,56,99,75,44,0.00,40.00,9,4,16,0.00
2013-9-4,82,70,56,62,56,51,98,65,37,0.00,40.00,6,3,12,0.00
2013-9-5,81,70,57,65,59,47,99,70,51,0.00,40.00,9,4,16,0.00
2013-9-6,75,64,52,55,49,45,96,63,37,0.00,40.00,5,3,16,0.00
2013-9-7,81,64,45,62,54,44,99,74,39,0.00,40.00,5,2,11,0.00
2013-9-8,84,71,59,68,61,-100,98,77,52,0.00,40.00,9,3,16,0.00
2013-9-9,76,67,53,65,58,49,96,75,61,0.00,40.00,6,4,10,0.00
2013-9-10,89,78,67,74,70,65,95,80,59,0.00,40.00,5,3,10,0.00
2013-9-11,94,80,71,76,72,68,99,79,47,0.00,40.00,6,2,13,0.00
2013-9-12,90,76,71,74,71,64,99,84,48,0.00,40.00,7,3,15,0.19
2013-9-13,77,69,58,71,61,49,99,79,43,0.00,40.00,11,4,21,0.20
2013-9-14,67,58,47,56,48,45,98,74,47,0.00,40.00,9,4,17,0.01
2013-9-15,76,53,41,57,46,-100,98,83,44,0.00,40.00,4,1,11,0.00
2013-9-16,73,63,55,62,57,52,98,83,51,0.00,40.00,6,2,12,0.00
2013-9-17,67,56,44,53,44,40,97,68,41,0.00,40.00,7,4,14,0.00
2013-9-18,48,42,39,45,41,38,98,98,97,0.00,40.00,0,0,1,0.00
2013-9-19,78,62,43,59,52,42,98,74,42,0.00,40.00,5,2,11,0.00
2013-9-20,80,64,48,63,55,48,99,78,45,0.00,40.00,6,2,10,0.00
2013-9-21,80,65,49,67,58,48,99,82,50,0.00,40.00,5,2,14,0.46
2013-9-22,70,62,50,67,52,-100,99,76,44,0.00,40.00,11,4,20,0.62
2013-9-23,66,54,43,49,45,42,98,76,46,0.00,40.00,9,3,16,0.01
2013-9-24,71,54,39,51,44,38,98,77,40,0.00,40.00,7,3,14,0.00
2013-9-25,76,59,43,56,50,43,99,76,39,0.00,40.00,5,2,10,0.00
2013-9-26,74,59,47,61,52,47,99,82,49,0.00,40.00,5,1,10,0.00
2013-9-27,72,60,51,62,54,50,99,83,55,0.00,40.00,5,2,9,0.00
2013-9-28,74,60,49,59,53,48,99,80,44,0.00,40.00,5,2,11,0.00
2013-9-29,74,58,47,59,50,-100,99,79,47,0.00,40.00,6,2,12,0.00
2013-9-30,74,57,44,57,50,43,99,81,41,0.00,40.00,7,2,11,0.00
2013-10-1,62,59,50,60,58,49,98,96,94,0.00,40.00,0,0,1,0.00
2013-10-2,84,67,53,67,59,53,99,80,45,0.00,40.00,7,2,15,0.00
2013-10-3,83,68,55,67,61,55,99,83,52,0.00,40.00,4,1,8,0.00
2013-10-4,87,70,57,69,62,57,99,81,43,0.00,40.00,5,1,10,0.00
2013-10-5,89,72,60,71,64,60,100,80,42,0.00,40.00,5,2,10,0.00
2013-10-6,87,74,67,72,67,62,100,81,44,0.00,40.00,5,3,11,0.00
2013-10-7,82,68,59,72,64,53,96,88,62,0.00,40.00,8,4,20,0.44
2013-10-8,64,54,45,53,48,45,99,82,52,0.00,40.00,6,2,16,0.05
2013-10-9,63,57,49,53,49,47,98,76,62,0.00,40.00,6,4,19,0.07
2013-10-10,61,57,54,60,56,51,97,95,87,0.00,40.00,7,6,17,1.44
2013-10-11,63,62,60,62,61,59,97,96,94,0.00,40.00,7,6,17,1.21
2013-10-12,71,64,60,62,58,54,96,81,64,0.00,40.00,7,5,17,0.26
2013-10-13,68,60,57,60,52,-100,96,78,58,0.00,40.00,7,5,15,0.18
2013-10-14,69,57,49,55,52,48,98,83,56,0.00,40.00,5,2,10,0.01
2013-10-15,74,57,44,58,48,38,99,78,29,0.00,40.00,5,2,10,0.00
2013-10-16,71,62,54,61,58,52,97,87,68,0.00,40.00,3,2,9,0.00
2013-10-17,75,66,58,64,62,57,99,87,66,0.00,40.00,5,2,13,0.00
2013-10-18,68,59,44,63,46,41,96,65,41,0.00,40.00,12,5,23,0.00
2013-10-19,65,52,41,58,48,40,98,86,58,0.00,40.00,7,2,12,0.01
2013-10-20,63,52,40,51,37,-100,96,62,34,0.00,40.00,10,5,22,0.01
2013-10-21,69,50,35,48,40,34,97,75,32,0.00,40.00,6,2,11,0.00
2013-10-22,67,54,45,54,47,43,98,80,53,0.00,40.00,10,3,16,0.00
2013-10-23,55,48,39,46,40,32,95,76,47,0.00,40.00,9,3,16,0.09
2013-10-24,52,44,33,37,31,22,93,63,34,0.00,40.00,12,6,24,0.01
2013-10-25,55,43,31,35,33,29,96,69,42,0.00,40.00,13,5,20,0.00
2013-10-26,57,42,27,40,30,26,96,69,31,0.00,40.00,9,2,21,0.00
2013-10-27,59,48,34,38,31,-100,94,58,35,0.00,40.00,10,4,20,0.00
2013-10-28,64,44,30,48,34,-100,96,78,42,0.00,40.00,5,1,12,0.00
2013-10-29,65,49,36,47,41,35,97,78,43,0.00,40.00,4,2,10,0.00
2013-10-30,60,50,43,57,49,42,99,95,85,0.00,40.00,3,1,7,0.09
2013-10-31,71,59,46,63,54,45,100,86,64,0.00,40.00,4,2,13,0.05
2013-11-1,72,65,56,63,60,55,99,84,72,0.00,40.00,12,4,24,0.21
2013-11-2,69,58,50,61,51,38,100,81,40,0.00,40.00,8,3,17,0.05
2013-11-3,54,46,37,44,31,-100,98,62,32,0.00,40.00,11,6,20,0.05
2013-11-4,47,37,29,29,22,16,89,57,30,0.00,40.00,6,3,12,0.01
2013-11-5,58,47,32,44,39,29,95,76,56,0.00,40.00,7,3,13,0.00
2013-11-6,69,54,37,53,47,36,99,81,49,0.00,40.00,7,3,11,0.00
2013-11-7,63,56,48,59,50,35,97,83,60,0.00,40.00,12,5,22,0.09
2013-11-8,52,43,29,35,26,22,90,53,35,0.00,40.00,17,7,29,0.02
2013-11-9,55,39,25,37,27,-100,94,67,36,0.00,40.00,7,2,15,0.00
2013-11-10,62,51,34,37,29,24,91,47,29,0.00,40.00,14,9,29,0.00
2013-11-11,56,46,29,38,31,26,90,58,38,0.00,40.00,8,4,14,0.00
2013-11-12,51,41,26,37,23,10,71,50,36,0.00,40.00,11,6,25,0.00
2013-11-13,42,31,22,21,16,11,87,58,32,0.00,40.00,12,5,22,0.00
2013-11-14,56,38,22,29,20,10,90,56,16,0.00,40.00,8,3,17,0.00
2013-11-15,62,42,28,37,30,26,94,68,27,0.00,40.00,4,1,9,0.00
2013-11-16,50,46,37,48,42,-100,98,89,79,0.00,40.00,5,2,8,0.09
2013-11-17,68,58,48,60,53,46,96,85,65,0.00,40.00,5,3,12,0.01
2013-11-18,68,61,52,63,39,23,94,50,21,0.00,40.00,14,7,31,0.11
2013-11-19,52,45,33,27,24,19,57,44,33,0.00,40.00,13,9,25,0.08
2013-11-20,45,33,26,29,21,16,86,63,34,0.00,40.00,7,2,11,0.00
2013-11-21,55,41,24,43,34,22,92,76,58,0.00,40.00,5,2,11,0.00
2013-11-22,58,52,46,52,48,42,93,86,71,0.00,40.00,6,3,14,0.01
2013-11-23,54,44,34,52,27,-100,92,53,34,0.00,40.00,13,10,27,0.01
2013-11-24,34,28,25,18,2,-6,52,33,22,0.00,40.00,17,11,33,0.00
2013-11-25,39,28,22,17,10,8,62,48,32,0.00,40.00,9,4,16,0.00
2013-11-26,55,37,28,54,29,17,98,75,45,0.00,40.00,10,3,23,0.68
2013-11-27,63,44,32,62,40,16,99,87,52,0.00,40.00,16,10,29,1.81
2013-11-28,38,31,24,23,16,13,88,56,39,0.00,40.00,13,7,29,0.02
2013-11-29,41,30,20,30,20,16,92,69,41,0.00,40.00,7,3,15,0.00
2013-11-30,42,30,19,31,21,-100,91,72,52,0.00,40.00,5,2,9,0.00
2013-12-1,48,36,24,33,29,23,94,79,49,0.00,40.00,5,2,11,0.00
2013-12-2,49,40,35,36,34,32,93,80,56,0.00,40.00,3,1,7,0.00
2013-12-3,55,42,31,40,34,29,93,76,43,0.00,40.00,7,2,11,0.00
2013-12-4,54,45,31,47,40,29,94,82,66,0.00,40.00,4,2,7,0.00
2013-12-5,63,56,49,60,54,47,100,94,82,0.00,40.00,4,2,9,0.00
2013-12-6,62,52,38,62,51,37,99,95,92,0.00,40.00,9,4,18,0.73
2013-12-7,41,36,30,37,29,-100,96,78,59,0.00,40.00,11,6,21,0.54
2013-12-8,32,29,28,31,23,17,96,78,59,0.00,40.00,5,4,11,0.01
2013-12-9,37,34,32,35,33,31,97,95,89,0.00,40.00,5,3,10,1.14
2013-12-10,35,32,30,34,30,18,98,90,59,0.00,40.00,8,4,12,0.26
2013-12-11,38,28,19,22,18,15,92,70,44,0.00,40.00,10,3,15,0.09
2013-12-12,29,24,15,18,12,6,92,63,38,0.00,40.00,9,4,16,0.01
2013-12-13,40,29,15,23,16,12,88,59,34,0.00,40.00,10,4,18,0.01
2013-12-14,41,34,28,41,27,-100,99,81,57,0.00,40.00,6,3,13,0.89
2013-12-15,45,37,33,38,29,19,98,76,52,0.00,40.00,14,8,28,0.80
2013-12-16,36,31,26,24,18,10,76,57,46,0.00,40.00,9,5,16,0.00
2013-12-17,35,32,30,30,24,16,92,73,55,0.00,40.00,8,4,12,0.05
2013-12-18,39,31,23,26,21,16,92,71,39,0.00,40.00,12,5,21,0.02
2013-12-19,54,37,22,32,26,20,93,69,37,0.00,40.00,5,2,11,0.00
2013-12-20,57,49,36,50,36,27,85,62,43,0.00,40.00,6,2,13,0.00
2013-12-21,70,58,51,56,48,-100,83,72,55,0.00,40.00,9,4,18,0.00
2013-12-22,69,64,59,63,59,55,95,86,78,0.00,40.00,9,4,20,0.11
2013-12-23,64,56,41,63,53,29,100,90,63,0.00,40.00,10,5,20,0.46
2013-12-24,41,35,26,29,21,6,70,56,40,0.00,40.00,14,9,26,0.02
2013-12-25,33,26,21,19,10,7,81,53,37,0.00,40.00,10,4,20,0.00
2013-12-26,42,28,18,26,21,15,91,77,45,0.00,40.00,7,2,14,0.00
2013-12-27,47,33,21,30,21,17,93,67,32,0.00,40.00,7,2,15,0.00
2013-12-28,57,39,25,31,25,-100,93,64,35,0.00,40.00,6,2,12,0.00
2013-12-29,50,44,41,50,39,27,99,83,50,0.00,40.00,11,5,21,1.08
2013-12-30,47,39,29,42,30,15,98,73,54,0.00,40.00,12,5,21,0.04
2013-12-31,41,33,25,29,18,13,78,54,43,0.00,40.00,12,5,23,0.00
2014-1-1,45,32,22,27,20,12,92,65,41,0.00,40.00,5,2,9,0.00
2014-1-2,36,32,26,33,29,25,94,90,84,0.00,40.00,6,4,12,0.00